Weather History for KMSO - November, 2012

Change the Weather History Date:

Wednesday, November 7, 2012

  Actual Average Record
Temperature  
Mean Temperature 40 °F 37 °F  
Max Temperature 50 °F 46 °F 62 °F (1931)
Min Temperature 30 °F 28 °F 0 °F (2003)
Degree Days  
Heating Degree Days 25 28  
Month to date heating degree days 133 189  
Since 1 July heating degree days 936 1131  
Cooling Degree Days 0 0  
Month to date cooling degree days 0 0  
Year to date cooling degree days 415 332  
Moisture  
Dew Point 34 °F    
Average Humidity 71    
Maximum Humidity 96    
Minimum Humidity 45    
Precipitation  
Precipitation 0.02 in 0.03 in 0.78 in (1906)
Month to date precipitation 0.09 0.21  
Year to date precipitation 12.42 12.29  
Snow  
Snow 0.00 in - - ()
Month to date snowfall 0.0  
Year to date snowfall 33.2  
Since 1 July snowfall 4.0  
Snow Depth 0.00 in    
Sea Level Pressure  
Sea Level Pressure 29.97 in    
Wind  
Wind Speed 8 mph (NW)    
Max Wind Speed 31 mph    
Max Gust Speed 38 mph    
Visibility 10 miles    
Events Rain    
T = Trace of Precipitation, MM = Missing Value Source: NWS Daily Summary

Daily Weather History Graph

Daily Weather History Graph

Search for Another Location

Airport or City:

Trip Planner

Search our weather history database for the weather conditions in past years. The results will help you decide how hot, cold, wet, or windy it might be!

Date:

Astronomy

Nov. 07, 2012 Rise Set
Actual Time 7:28 AM MST 5:10 PM MST
Civil Twilight 6:56 AM MST 5:43 PM MST
Nautical Twilight 6:19 AM MST 6:19 PM MST
Astronomical Twilight 5:44 AM MST 6:55 PM MST
Moon 12:00 AM MST (11/7) 1:45 PM MST (11/7)
Length of Visible Light 10h 47m
Length of Day
9h 42m
Last Quarter, 42% of the Moon is Illuminated
Nov 7
Last Quarter
Nov 13
New
Nov 20
First Quarter
Nov 28
Full
Dec 6
Last Quarter

Hourly Weather History & Observations

Time (MST) Temp. Windchill Dew Point Humidity Pressure Visibility Wind Dir Wind Speed Gust Speed Precip Events Conditions
12:53 AM 39.9 °F - 37.9 °F 93% 29.94 in 10.0 mi Calm Calm - N/A   Clear
1:53 AM 39.9 °F - 37.9 °F 93% 29.93 in 10.0 mi Calm Calm - N/A   Overcast
2:53 AM 43.0 °F - 39.9 °F 89% 29.91 in 10.0 mi Calm Calm - N/A   Overcast
3:53 AM 41.0 °F - 39.9 °F 96% 29.92 in 8.0 mi Calm Calm - N/A   Overcast
4:53 AM 42.1 °F 40.2 °F 39.9 °F 92% 29.91 in 10.0 mi SE 3.5 mph - 0.00 in   Overcast
5:53 AM 44.1 °F 40.8 °F 42.1 °F 93% 29.88 in 10.0 mi East 5.8 mph - 0.01 in   Mostly Cloudy
6:53 AM 42.1 °F 40.2 °F 39.9 °F 92% 29.87 in 9.0 mi WNW 3.5 mph - 0.00 in   Scattered Clouds
7:53 AM 43.0 °F 40.3 °F 41.0 °F 93% 29.85 in 8.0 mi WNW 4.6 mph - N/A   Overcast
8:53 AM 45.0 °F 43.5 °F 43.0 °F 93% 29.88 in 10.0 mi NW 3.5 mph - 0.01 in Rain Light Rain
9:44 AM 48.2 °F - 46.4 °F 93% 29.86 in 10.0 mi NW 12.7 mph - 0.00 in   Overcast
9:53 AM 48.9 °F - 45.0 °F 86% 29.90 in 10.0 mi NW 18.4 mph 24.2 mph 0.00 in   Overcast
10:53 AM 48.0 °F - 42.1 °F 80% 29.94 in 10.0 mi NNW 19.6 mph 25.3 mph 0.00 in   Overcast
11:31 AM 46.4 °F 38.5 °F 37.4 °F 71% 29.93 in 10.0 mi NNW 21.9 mph 33.4 mph 0.00 in Rain Light Rain
11:53 AM 46.0 °F 40.2 °F 35.1 °F 66% 29.98 in 10.0 mi NW 12.7 mph 31.1 mph 0.00 in   Overcast
12:53 PM 48.9 °F - 28.0 °F 44% 29.98 in 10.0 mi WNW 27.6 mph 34.5 mph N/A   Overcast
1:53 PM 46.9 °F - 30.0 °F 52% 30.01 in 10.0 mi West 16.1 mph - N/A   Overcast
2:53 PM 46.9 °F - 27.0 °F 46% 30.01 in 10.0 mi WNW 16.1 mph 26.5 mph N/A   Overcast
3:53 PM 46.0 °F 41.0 °F 27.0 °F 47% 30.03 in 10.0 mi West 10.4 mph - N/A   Overcast
4:53 PM 44.1 °F 39.5 °F 28.0 °F 53% 30.06 in 10.0 mi NW 8.1 mph - N/A   Overcast
5:53 PM 43.0 °F 40.3 °F 26.1 °F 51% 30.07 in 10.0 mi NNW 4.6 mph - N/A   Overcast
6:53 PM 41.0 °F 36.4 °F 26.1 °F 55% 30.09 in 10.0 mi NW 6.9 mph - N/A   Overcast
7:53 PM 37.9 °F - 27.0 °F 65% 30.09 in 10.0 mi Calm Calm - N/A   Overcast
8:53 PM 37.0 °F 32.4 °F 27.0 °F 67% 30.09 in 10.0 mi NW 5.8 mph - N/A   Overcast
9:53 PM 34.0 °F 28.8 °F 26.1 °F 73% 30.07 in 10.0 mi North 5.8 mph - N/A   Partly Cloudy
10:53 PM 30.9 °F 26.2 °F 25.0 °F 79% 30.06 in 10.0 mi NW 4.6 mph - N/A   Scattered Clouds
11:53 PM 30.9 °F 27.5 °F 25.0 °F 79% 30.05 in 10.0 mi NW 3.5 mph - N/A   Clear